Tracking 23645 objects as of 21-Sep-2021
HD Live streaming from Space Station
objects crossing your sky now

STARLINK-1407

Track STARLINK-1407 now!
10-day predictions
STARLINK-1407 is classified as:


NORAD ID: 45703
Int'l Code: 2020-035AY
Perigee: 553.0 km
Apogee: 555.7 km
Inclination: 53.1 °
Period: 95.6 minutes
Semi major axis: 6925 km
RCS: Unknown
Launch date: June 4, 2020
Source: United States (US)
Launch site: AIR FORCE EASTERN TEST RANGE (AFETR)
aabbcc
Your satellite tracking list
Your tracking list is empty




NASA's NSSDC Master Catalog

Two Line Element Set (TLE):
1 45703U 20035AY  21264.11082897  .00000493  00000-0  51993-4 0  9997
2 45703  53.0565 156.5776 0001885  73.5851 286.5345 15.06400775 72976
Source of the keplerian elements: AFSPC